Washington, NC

10:30 AM EDT on April 23, 2017 (GMT -0400)
Warren

Weather History for KOCW - March, 2014

Change the Weather History Date:

Sunday, March 23, 2014

  Actual Average (KPGV) Record (KPGV)
Temperature  
Mean Temperature 50 °F -  
Max Temperature 63 °F 64 °F 86 °F (1935)
Min Temperature 37 °F 39 °F 23 °F (2004)
Degree Days  
Heating Degree Days 14    
Moisture  
Dew Point 43 °F    
Average Humidity 72    
Maximum Humidity 86    
Minimum Humidity 36    
Precipitation  
Precipitation 0.06 in - - ()
Sea Level Pressure  
Sea Level Pressure 29.99 in    
Wind  
Wind Speed 6 mph (NNE)    
Max Wind Speed 21 mph    
Max Gust Speed 25 mph    
Visibility 8 miles    
Events      
Averages and records for this station are not official NWS values.
T = Trace of Precipitation, MM = Missing Value Source: NWS Daily Summary

Daily Weather History Graph

Daily Weather History Graph

Search for Another Location

Airport or City:

Trip Planner

Search our weather history database for the weather conditions in past years. The results will help you decide how hot, cold, wet, or windy it might be!

Date:

Astronomy

Mar. 23, 2014 Rise Set
Actual Time 7:07 AM EDT 7:22 PM EDT
Civil Twilight 6:42 AM EDT 7:47 PM EDT
Nautical Twilight 6:12 AM EDT 8:17 PM EDT
Astronomical Twilight 5:42 AM EDT 8:48 PM EDT
Moon 1:27 AM EDT 11:56 AM EDT
Length of Visible Light 13h 05m
Length of Day
12h 14m
Waning Gibbous, 55% of the Moon is Illuminated
Mar 23
Waning Gibbous
Mar 23
Last Quarter
Mar 30
New
Apr 7
First Quarter
Apr 15
Full

Hourly Weather History & Observations

Time (EDT) Temp. Windchill Dew Point Humidity Pressure Visibility Wind Dir Wind Speed Gust Speed Precip Events Conditions
12:15 AM 63.0 °F - 58.3 °F 85% 29.99 in 10.0 mi SW 5.8 mph - N/A   Clear
12:35 AM 63.0 °F - 58.3 °F 85% 29.99 in 10.0 mi WSW 5.8 mph - N/A   Clear
12:55 AM 62.8 °F - 57.9 °F 84% 29.98 in 10.0 mi SW 5.8 mph - N/A   Clear
1:15 AM 62.6 °F - 57.9 °F 85% 29.98 in 10.0 mi SW 5.8 mph - N/A   Clear
1:35 AM 61.7 °F - 57.0 °F 85% 29.98 in 10.0 mi SW 4.6 mph - N/A   Clear
1:55 AM 61.0 °F - 56.3 °F 85% 29.97 in 10.0 mi SSW 3.5 mph - N/A   Clear
2:15 AM 60.8 °F - 56.1 °F 85% 29.97 in 10.0 mi SSW 3.5 mph - N/A   Clear
2:35 AM 60.4 °F - 55.8 °F 85% 29.96 in 10.0 mi Calm Calm - N/A   Clear
2:55 AM 60.4 °F - 55.8 °F 85% 29.96 in 10.0 mi Calm Calm - N/A   Clear
3:15 AM 58.1 °F - 53.6 °F 85% 29.95 in 10.0 mi South 3.5 mph - N/A   Clear
3:35 AM 58.5 °F - 54.0 °F 85% 29.95 in 10.0 mi SSW 3.5 mph - N/A   Clear
3:55 AM 58.1 °F - 53.6 °F 85% 29.94 in 10.0 mi Calm Calm - N/A   Clear
4:15 AM 58.1 °F - 53.6 °F 85% 29.94 in 5.0 mi Calm Calm - N/A   Clear
4:35 AM 58.1 °F - 53.6 °F 85% 29.93 in 1.8 mi Calm Calm - N/A   Unknown
4:55 AM 55.4 °F - 50.9 °F 85% 29.93 in 0.2 mi Calm Calm - N/A   Overcast
5:15 AM 53.6 °F - 49.1 °F 85% 29.92 in 0.2 mi Calm Calm - N/A   Overcast
5:35 AM 53.1 °F - 48.6 °F 85% 29.93 in 0.2 mi Calm Calm - N/A   Overcast
5:55 AM 53.2 °F - 48.7 °F 85% 29.93 in 0.2 mi Calm Calm - N/A   Overcast
6:15 AM 58.1 °F - 53.6 °F 85% 29.93 in 0.5 mi Calm Calm - N/A   Overcast
6:35 AM 58.1 °F - 53.6 °F 85% 29.93 in 0.2 mi Calm Calm - N/A   Overcast
6:55 AM 58.1 °F - 53.6 °F 85% 29.95 in 0.5 mi Calm Calm - N/A   Overcast
7:15 AM 58.1 °F - 53.6 °F 85% 29.95 in 0.5 mi Calm Calm - N/A   Overcast
7:35 AM 58.1 °F - 53.6 °F 85% 29.95 in 0.2 mi North 6.9 mph - N/A   Overcast
7:55 AM 58.1 °F - 53.6 °F 85% 29.96 in 3.0 mi NNE 4.6 mph - N/A   Overcast
8:15 AM 58.1 °F - 53.6 °F 85% 29.96 in 5.0 mi NNE 10.4 mph - N/A   Mostly Cloudy
8:35 AM 52.7 °F - 48.2 °F 85% 29.97 in 10.0 mi NE 12.7 mph 20.7 mph N/A   Scattered Clouds
8:55 AM 52.7 °F - 46.8 °F 80% 29.99 in 10.0 mi NE 12.7 mph 18.4 mph N/A   Clear
9:15 AM 54.0 °F - 43.7 °F 68% 30.00 in 10.0 mi NE 12.7 mph 18.4 mph N/A   Clear
9:35 AM 54.7 °F - 40.5 °F 59% 29.99 in 10.0 mi NE 11.5 mph 19.6 mph N/A   Clear
9:55 AM 55.4 °F - 38.8 °F 54% 30.00 in 10.0 mi NE 13.8 mph 18.4 mph N/A   Clear
10:15 AM 58.1 °F - 41.0 °F 53% 30.00 in 10.0 mi NE 9.2 mph 16.1 mph N/A   Clear
10:35 AM 56.7 °F - 38.3 °F 50% 29.99 in 10.0 mi NE 10.4 mph 16.1 mph N/A   Clear
10:55 AM 58.1 °F - 36.9 °F 45% 30.00 in 10.0 mi NE 9.2 mph 18.4 mph N/A   Clear
11:15 AM 58.1 °F - 36.7 °F 45% 30.00 in 10.0 mi NNE 12.7 mph 18.4 mph N/A   Clear
11:35 AM 58.3 °F - 36.7 °F 45% 30.01 in 10.0 mi NNE 10.4 mph 18.4 mph N/A   Clear
11:55 AM 59.5 °F - 37.4 °F 44% 30.00 in 10.0 mi NE 12.7 mph 19.6 mph N/A   Clear
12:15 PM 60.4 °F - 36.7 °F 41% 29.99 in 10.0 mi NE 9.2 mph - N/A   Clear
12:35 PM 60.4 °F - 34.9 °F 38% 29.98 in 10.0 mi NE 11.5 mph 18.4 mph N/A   Clear
12:55 PM 60.4 °F - 33.3 °F 36% 29.98 in 10.0 mi East 12.7 mph - N/A   Clear
1:15 PM 59.0 °F - 32.5 °F 37% 29.98 in 10.0 mi ENE 8.1 mph - N/A   Clear
1:35 PM 58.1 °F - 33.1 °F 39% 29.97 in 10.0 mi ENE 8.1 mph - N/A   Scattered Clouds
1:55 PM 58.1 °F - 33.1 °F 39% 29.95 in 10.0 mi ENE 10.4 mph - N/A   Scattered Clouds
2:15 PM 58.1 °F - 34.3 °F 41% 29.95 in 10.0 mi NNE 11.5 mph - N/A   Clear
2:35 PM 58.1 °F - 34.9 °F 42% 29.94 in 10.0 mi NNE 13.8 mph 19.6 mph N/A   Scattered Clouds
2:55 PM 58.1 °F - 34.5 °F 41% 29.96 in 10.0 mi NNE 11.5 mph 18.4 mph N/A   Scattered Clouds
3:15 PM 58.1 °F - 33.3 °F 39% 29.95 in 10.0 mi NNE 5.8 mph - N/A   Scattered Clouds
3:35 PM 58.1 °F - 34.5 °F 41% 29.95 in 10.0 mi North 15.0 mph 19.6 mph N/A   Clear
3:55 PM 57.4 °F - 34.0 °F 41% 29.96 in 10.0 mi North 20.7 mph 24.2 mph N/A   Clear
4:15 PM 52.7 °F - 31.5 °F 44% 29.97 in 10.0 mi North 17.3 mph 25.3 mph N/A   Clear
4:35 PM 52.7 °F - 33.3 °F 48% 29.98 in 10.0 mi North 15.0 mph 20.7 mph N/A   Clear
4:55 PM 47.7 °F - 39.7 °F 74% 29.99 in 10.0 mi North 13.8 mph - 0.01 in   Mostly Cloudy
5:15 PM 45.1 °F 39.9 °F 40.5 °F 84% 29.98 in 10.0 mi NNE 10.4 mph - N/A   Overcast
5:35 PM 45.1 °F 39.9 °F 41.0 °F 85% 29.98 in 10.0 mi North 10.4 mph - N/A   Mostly Cloudy
5:55 PM 43.9 °F 37.5 °F 39.7 °F 85% 29.99 in 10.0 mi North 12.7 mph - 0.01 in   Mostly Cloudy
6:15 PM 43.2 °F 37.0 °F 39.0 °F 85% 30.00 in 5.0 mi North 11.5 mph - N/A   Overcast
6:35 PM 42.8 °F 37.5 °F 38.5 °F 85% 30.02 in 5.0 mi North 9.2 mph - 0.02 in   Overcast
6:55 PM 42.8 °F 39.3 °F 38.5 °F 85% 30.01 in 5.0 mi North 5.8 mph - 0.03 in   Overcast
7:15 PM 42.8 °F 37.5 °F 38.5 °F 85% 30.02 in 7.0 mi North 9.2 mph - 0.01 in   Overcast
7:35 PM 42.8 °F 39.3 °F 38.5 °F 85% 30.03 in 7.0 mi North 5.8 mph - 0.01 in   Overcast
7:55 PM 42.8 °F 41.1 °F 38.5 °F 85% 30.03 in 5.0 mi NNE 3.5 mph - 0.01 in   Overcast
8:15 PM 42.8 °F 39.3 °F 38.5 °F 85% 30.03 in 7.0 mi NE 5.8 mph - N/A   Overcast
8:35 PM 42.8 °F 38.6 °F 38.5 °F 85% 30.04 in 10.0 mi North 6.9 mph - N/A   Overcast
8:55 PM 41.4 °F 35.7 °F 37.4 °F 86% 30.06 in 10.0 mi North 9.2 mph - N/A   Overcast
9:15 PM 40.8 °F 35.6 °F 36.7 °F 85% 30.07 in 10.0 mi North 8.1 mph - N/A   Mostly Cloudy
9:35 PM 40.6 °F 36.0 °F 36.5 °F 85% 30.09 in 10.0 mi North 6.9 mph - N/A   Mostly Cloudy
9:55 PM 41.0 °F 35.8 °F 36.9 °F 85% 30.11 in 10.0 mi North 8.1 mph - N/A   Overcast
10:15 PM 42.8 °F 39.3 °F 38.5 °F 85% 30.12 in 10.0 mi North 5.8 mph - N/A   Overcast
10:35 PM 40.6 °F 35.4 °F 36.5 °F 85% 30.12 in 10.0 mi North 8.1 mph - N/A   Overcast
10:55 PM 40.1 °F 35.3 °F 36.1 °F 86% 30.13 in 10.0 mi NNW 6.9 mph - N/A   Scattered Clouds
11:15 PM 40.1 °F 36.9 °F 36.1 °F 86% 30.14 in 10.0 mi NNW 4.6 mph - N/A   Clear
11:35 PM 38.5 °F 34.1 °F 34.5 °F 86% 30.14 in 7.0 mi North 5.8 mph - N/A   Clear
11:55 PM 37.6 °F 35.1 °F 33.8 °F 86% 30.14 in 7.0 mi NNW 3.5 mph - N/A   Clear